Toccoa, GA

5:28 AM EST on January 22, 2017 (GMT -0500)
Toccoa-Letourneau

Weather History for KTOC - January, 2014

Change the Weather History Date:

Wednesday, January 22, 2014

  Actual Average Record
Temperature  
Mean Temperature 30 °F -  
Max Temperature 41 °F 50 °F 57 °F (2015)
Min Temperature 20 °F 33 °F 20 °F (2014)
Degree Days  
Heating Degree Days 34    
Moisture  
Dew Point 3 °F    
Average Humidity 36    
Maximum Humidity 65    
Minimum Humidity 14    
Precipitation  
Precipitation 0.00 in - - ()
Sea Level Pressure  
Sea Level Pressure 30.01 in    
Wind  
Wind Speed 7 mph (West)    
Max Wind Speed 14 mph    
Max Gust Speed 20 mph    
Visibility 10 miles    
Events      
Averages and records for this station are not official NWS values.
T = Trace of Precipitation, MM = Missing Value Source: NWS Daily Summary

Daily Weather History Graph

Daily Weather History Graph

Search for Another Location

Airport or City:

Trip Planner

Search our weather history database for the weather conditions in past years. The results will help you decide how hot, cold, wet, or windy it might be!

Date:

Astronomy

Jan. 22, 2014 Rise Set
Actual Time 7:37 AM EST 5:52 PM EST
Civil Twilight 7:10 AM EST 6:19 PM EST
Nautical Twilight 6:39 AM EST 6:50 PM EST
Astronomical Twilight 6:09 AM EST 7:20 PM EST
Moon No Moon Rise 10:54 AM EST
Length of Visible Light 11h 09m
Length of Day
10h 15m
Waning Gibbous, 65% of the Moon is Illuminated
Jan 22
Waning Gibbous
Jan 24
Last Quarter
Jan 30
New
Feb 6
First Quarter
Feb 14
Full

Hourly Weather History & Observations

Time (EST) Temp. Windchill Dew Point Humidity Pressure Visibility Wind Dir Wind Speed Gust Speed Precip Events Conditions
12:15 AM 28.0 °F 20.8 °F 14.5 °F 57% 29.93 in 10.0 mi NW 6.9 mph - N/A   Clear
12:35 AM 27.5 °F 22.2 °F 14.0 °F 57% 29.94 in 10.0 mi NW 4.6 mph - N/A   Clear
12:55 AM 27.1 °F 19.7 °F 13.5 °F 56% 29.94 in 10.0 mi NNW 6.9 mph - N/A   Clear
1:15 AM 26.6 °F 19.1 °F 13.5 °F 58% 29.94 in 10.0 mi WNW 6.9 mph - N/A   Clear
1:35 AM 26.1 °F 18.4 °F 13.3 °F 59% 29.94 in 10.0 mi West 6.9 mph - N/A   Clear
1:55 AM 25.7 °F 19.0 °F 13.1 °F 59% 29.94 in 10.0 mi WNW 5.8 mph - N/A   Clear
2:15 AM 25.5 °F 17.8 °F 12.7 °F 58% 29.95 in 10.0 mi NW 6.9 mph - N/A   Clear
2:35 AM 25.3 °F 18.5 °F 12.6 °F 58% 29.95 in 10.0 mi WNW 5.8 mph - N/A   Clear
2:55 AM 25.3 °F 17.6 °F 12.0 °F 57% 29.95 in 10.0 mi WNW 6.9 mph - N/A   Clear
3:15 AM 25.0 °F 16.3 °F 11.8 °F 57% 29.96 in 10.0 mi NW 8.1 mph - N/A   Clear
3:35 AM 25.2 °F 13.3 °F 11.8 °F 57% 29.96 in 10.0 mi NNW 13.8 mph 17.3 mph N/A   Clear
3:55 AM 24.6 °F 18.8 °F 11.5 °F 57% 29.96 in 10.0 mi WNW 4.6 mph - N/A   Clear
4:15 AM 24.3 °F - 11.8 °F 59% 29.95 in 10.0 mi Calm Calm - N/A   Clear
4:55 AM 23.9 °F 15.0 °F 11.7 °F 60% 29.96 in 10.0 mi WNW 8.1 mph - N/A   Clear
5:15 AM 23.4 °F 15.2 °F 11.7 °F 61% 29.96 in 10.0 mi NW 6.9 mph - N/A   Clear
5:35 AM 22.6 °F 18.0 °F 11.7 °F 63% 29.97 in 10.0 mi WNW 3.5 mph - N/A   Clear
5:55 AM 21.7 °F 13.2 °F 11.7 °F 65% 29.98 in 10.0 mi NW 6.9 mph - N/A   Clear
6:15 AM 21.4 °F 12.8 °F 10.9 °F 64% 29.99 in 10.0 mi WNW 6.9 mph - N/A   Clear
6:35 AM 21.0 °F 14.6 °F 10.2 °F 63% 30.00 in 10.0 mi WNW 4.6 mph - N/A   Clear
6:55 AM 20.7 °F 15.8 °F 9.7 °F 63% 30.01 in 10.0 mi West 3.5 mph - N/A   Clear
7:15 AM 20.3 °F 15.4 °F 9.3 °F 63% 30.02 in 10.0 mi West 3.5 mph - N/A   Clear
7:35 AM 20.1 °F 13.6 °F 8.6 °F 61% 30.02 in 10.0 mi West 4.6 mph - N/A   Clear
7:55 AM 20.1 °F 13.6 °F 7.7 °F 59% 30.03 in 10.0 mi WNW 4.6 mph - N/A   Clear
8:15 AM 21.2 °F 16.4 °F 7.7 °F 56% 30.03 in 10.0 mi West 3.5 mph - N/A   Clear
8:35 AM 21.9 °F 13.4 °F 7.0 °F 53% 30.04 in 10.0 mi West 6.9 mph - N/A   Clear
8:55 AM 23.0 °F 14.7 °F 6.6 °F 50% 30.04 in 10.0 mi West 6.9 mph - N/A   Clear
9:15 AM 24.4 °F 18.6 °F 6.3 °F 46% 30.05 in 10.0 mi NW 4.6 mph - N/A   Clear
9:35 AM 25.7 °F 18.0 °F 5.7 °F 43% 30.06 in 10.0 mi West 6.9 mph - N/A   Clear
9:55 AM 27.3 °F 20.9 °F 5.0 °F 39% 30.06 in 10.0 mi NW 5.8 mph - N/A   Clear
10:15 AM 28.8 °F 21.7 °F 4.1 °F 35% 30.07 in 10.0 mi West 6.9 mph - N/A   Clear
10:35 AM 30.0 °F 23.2 °F 3.2 °F 32% 30.07 in 10.0 mi West 6.9 mph - N/A   Clear
10:55 AM 30.9 °F 24.3 °F 2.7 °F 30% 30.07 in 10.0 mi West 6.9 mph - N/A   Clear
11:15 AM 31.8 °F 26.2 °F 1.9 °F 28% 30.06 in 10.0 mi West 5.8 mph - N/A   Clear
11:35 AM 32.4 °F 27.9 °F 0.5 °F 26% 30.06 in 10.0 mi West 4.6 mph - N/A   Clear
11:55 AM 32.5 °F 25.5 °F -0.9 °F 24% 30.04 in 10.0 mi SW 8.1 mph - N/A   Clear
12:15 PM 33.6 °F 30.6 °F -0.0 °F 24% 30.03 in 10.0 mi WSW 3.5 mph - N/A   Clear
12:35 PM 34.5 °F 29.4 °F -0.2 °F 23% 30.02 in 10.0 mi WSW 5.8 mph - N/A   Clear
12:55 PM 36.0 °F 31.1 °F -1.8 °F 20% 30.02 in 10.0 mi WSW 5.8 mph - N/A   Clear
1:15 PM 37.4 °F 32.1 °F -0.0 °F 21% 30.00 in 10.0 mi West 6.9 mph - N/A   Clear
1:35 PM 38.5 °F 32.7 °F -3.1 °F 17% 30.00 in 10.0 mi West 8.1 mph - N/A   Clear
1:55 PM 38.5 °F 31.6 °F -1.8 °F 18% 29.99 in 10.0 mi WSW 10.4 mph - N/A   Clear
2:15 PM 38.8 °F 33.8 °F -2.4 °F 18% 29.98 in 10.0 mi SSW 6.9 mph - N/A   Clear
2:35 PM 39.7 °F 35.6 °F -4.2 °F 16% 29.96 in 10.0 mi WSW 5.8 mph - N/A   Clear
2:55 PM 40.5 °F 34.1 °F -4.7 °F 15% 29.96 in 10.0 mi West 10.4 mph - N/A   Clear
3:15 PM 40.8 °F 35.0 °F -5.6 °F 14% 29.97 in 10.0 mi West 9.2 mph 16.1 mph N/A   Clear
3:35 PM 41.2 °F 35.0 °F -4.0 °F 15% 29.97 in 10.0 mi West 10.4 mph - N/A   Clear
3:55 PM 41.2 °F 34.5 °F -3.5 °F 15% 29.97 in 10.0 mi WSW 11.5 mph 16.1 mph N/A   Clear
4:15 PM 41.0 °F 34.7 °F -4.5 °F 15% 29.97 in 10.0 mi WSW 10.4 mph 17.3 mph N/A   Clear
4:35 PM 40.5 °F 34.1 °F -3.5 °F 16% 29.98 in 10.0 mi SW 10.4 mph - N/A   Clear
4:55 PM 40.1 °F 36.1 °F -2.7 °F 16% 29.99 in 10.0 mi West 5.8 mph - N/A   Clear
5:15 PM 39.6 °F 35.4 °F -1.1 °F 18% 29.99 in 10.0 mi West 5.8 mph - N/A   Clear
5:35 PM 38.3 °F 32.5 °F -1.7 °F 18% 30.00 in 10.0 mi WSW 8.1 mph - N/A   Clear
5:55 PM 36.7 °F 32.0 °F -6.3 °F 16% 30.00 in 10.0 mi West 5.8 mph - N/A   Clear
6:15 PM 35.6 °F 29.9 °F -0.2 °F 22% 30.01 in 10.0 mi WSW 6.9 mph - N/A   Clear
6:35 PM 34.7 °F 28.1 °F -1.1 °F 22% 30.02 in 10.0 mi WSW 8.1 mph - N/A   Clear
6:55 PM 34.2 °F 27.5 °F -1.1 °F 22% 30.03 in 10.0 mi WSW 8.1 mph - N/A   Scattered Clouds
7:15 PM 33.3 °F 24.6 °F -2.0 °F 22% 30.04 in 10.0 mi WSW 11.5 mph - N/A   Scattered Clouds
7:35 PM 32.5 °F 23.2 °F -2.9 °F 22% 30.04 in 10.0 mi WSW 12.7 mph - N/A   Clear
7:55 PM 32.2 °F 24.4 °F -3.1 °F 22% 30.05 in 10.0 mi WSW 9.2 mph - N/A   Scattered Clouds
8:15 PM 32.0 °F 22.1 °F -2.7 °F 23% 30.05 in 10.0 mi WSW 13.8 mph 19.6 mph N/A   Clear
8:35 PM 32.0 °F 22.1 °F -2.9 °F 22% 30.06 in 10.0 mi West 13.8 mph 18.4 mph N/A   Clear
8:55 PM 32.2 °F 22.7 °F -3.1 °F 22% 30.06 in 10.0 mi West 12.7 mph 18.4 mph N/A   Clear
9:15 PM 32.0 °F 24.2 °F -2.0 °F 23% 30.07 in 10.0 mi West 9.2 mph 16.1 mph N/A   Clear
9:35 PM 32.0 °F 24.2 °F -2.0 °F 23% 30.08 in 10.0 mi West 9.2 mph - N/A   Clear
9:55 PM 32.0 °F 27.5 °F -1.7 °F 24% 30.09 in 10.0 mi West 4.6 mph - N/A   Clear
10:15 PM 31.8 °F 27.3 °F -1.7 °F 24% 30.09 in 10.0 mi West 4.6 mph - N/A   Clear
10:35 PM 31.1 °F 24.5 °F -1.1 °F 25% 30.10 in 10.0 mi West 6.9 mph - N/A   Clear
10:55 PM 30.9 °F 27.5 °F -0.8 °F 26% 30.09 in 10.0 mi West 3.5 mph - N/A   Clear
11:15 PM 29.1 °F 25.4 °F 1.0 °F 30% 30.09 in 10.0 mi WSW 3.5 mph - N/A   Clear
11:35 PM 29.7 °F 26.1 °F 0.5 °F 29% 30.10 in 10.0 mi West 3.5 mph - N/A   Clear
11:55 PM 29.7 °F 23.7 °F 1.0 °F 29% 30.10 in 10.0 mi West 5.8 mph - N/A   Clear